TimeCDT,TemperatureF,Dew PointF,Humidity,Sea Level PressureIn,VisibilityMPH,Wind Direction,Wind SpeedMPH,Gust SpeedMPH,PrecipitationIn,Events,Conditions,WindDirDegrees,DateUTC
12:56 AM,16.2,13.1,88,30.11,10.0,Calm,Calm,-,N/A,,Clear,0,2013-03-22 05:56:00
1:56 AM,17.1,13.1,84,30.11,10.0,Calm,Calm,-,N/A,,Clear,0,2013-03-22 06:56:00
2:56 AM,16.2,12.0,84,30.10,10.0,Calm,Calm,-,N/A,,Clear,0,2013-03-22 07:56:00
3:56 AM,15.1,11.1,84,30.09,10.0,Calm,Calm,-,N/A,,Clear,0,2013-03-22 08:56:00
4:56 AM,15.1,11.1,84,30.09,10.0,Calm,Calm,-,N/A,,Scattered Clouds,0,2013-03-22 09:56:00
5:56 AM,19.0,15.1,85,30.10,10.0,Calm,Calm,-,N/A,,Overcast,0,2013-03-22 10:56:00
6:56 AM,17.1,14.0,88,30.12,10.0,Calm,Calm,-,N/A,,Clear,0,2013-03-22 11:56:00
7:56 AM,24.1,18.1,78,30.13,10.0,Calm,Calm,-,N/A,,Scattered Clouds,0,2013-03-22 12:56:00
8:56 AM,27.1,17.1,66,30.15,10.0,Calm,Calm,-,N/A,,Mostly Cloudy,0,2013-03-22 13:56:00
9:56 AM,32.0,16.2,52,30.13,10.0,Variable,5.8,-,N/A,,Mostly Cloudy,0,2013-03-22 14:56:00
10:56 AM,34.9,16.2,46,30.12,10.0,WSW,5.8,-,N/A,,Partly Cloudy,240,2013-03-22 15:56:00
11:56 AM,37.9,15.1,39,30.12,10.0,Calm,Calm,-,N/A,,Scattered Clouds,0,2013-03-22 16:56:00
12:56 PM,37.9,14.0,38,30.10,10.0,Calm,Calm,-,N/A,,Overcast,0,2013-03-22 17:56:00
1:56 PM,38.8,16.2,40,30.08,10.0,NE,5.8,-,N/A,,Overcast,50,2013-03-22 18:56:00
2:56 PM,41.9,15.1,34,30.07,10.0,Variable,3.5,-,N/A,,Overcast,0,2013-03-22 19:56:00
3:56 PM,41.9,17.1,37,30.06,10.0,NNE,4.6,-,N/A,,Mostly Cloudy,30,2013-03-22 20:56:00
4:56 PM,41.0,19.0,41,30.06,10.0,North,5.8,-,N/A,,Overcast,10,2013-03-22 21:56:00
5:56 PM,41.0,19.0,41,30.06,10.0,NNE,5.8,-,N/A,,Mostly Cloudy,30,2013-03-22 22:56:00
6:56 PM,39.9,20.1,45,30.07,10.0,North,4.6,-,N/A,,Mostly Cloudy,360,2013-03-22 23:56:00
7:56 PM,38.8,22.1,51,30.08,10.0,Calm,Calm,-,N/A,,Mostly Cloudy,0,2013-03-23 00:56:00
8:56 PM,37.9,26.1,62,30.08,10.0,Calm,Calm,-,N/A,,Overcast,0,2013-03-23 01:56:00
9:56 PM,37.9,23.0,55,30.08,10.0,Calm,Calm,-,N/A,,Overcast,0,2013-03-23 02:56:00
11:56 PM,37.9,26.1,62,30.06,10.0,Calm,Calm,-,N/A,,Overcast,0,2013-03-23 04:56:00